Domov               UVHVVR             MKGP            O straneh              
ZDRAVSTVENO VARSTVO RASTLIN
  MREŽA AGROMET. POSTAJ
 ► PROGNOSTIČNA OBVESTILA
AGROMETEOROLOŠKI PODATKI -
ARSO
OBVLADOVANJE TVEGANJ ZARADI
NEUGODNIH VREMENSKIH RAZMER
  ► NARAVNE NESREČE
  ► SUŠA/MOČA
  ► NAMAKANJE
  ► ŽLED (gozdarstvo)
KARTOGRAFSKI PRIKAZI
SPLETNE POVEZAVE
PROJEKTI IN PUBLIKACIJE

AGROMETEOROLOŠKA MREŽA: VREMENSKE POSTAJE IN FENOLOŠKA OPAZOVANJA

Pregled podatkov za lokacijo Zavrhek, meteorološka postaja 37907

Pregled senzorjev na lokaciji

ID Ime Zadnja
vrednost
Datum
zadnje
spremembe
Tip
senzorja
1989 Temperatura 2 m (°C) 6,62 °C 20.1.2018 12:00 50YA
1990 Relativna vlaga 2 m (% RH) 58,66 % RH 20.1.2018 12:00 50YA
1991 Padavine (mm) 0 mm 20.1.2018 12:00 Rain-O-Matic

Pregled podatkov zadnjih 24 ur

Zap.
št.
Datum in čas Zavrhek
Padavine Relativna
vlaga
2
m
Temperatura
2
m
0 20.1.2018 12:00 0 58,66 6,62
1 20.1.2018 11:30 0 67,33 5,59
2 20.1.2018 11:00 0 76,43 3,44
3 20.1.2018 10:30 0 88,03 1,37
4 20.1.2018 10:00 0 94,58 -0,15
5 20.1.2018 09:30 0 97,75 -1,17
6 20.1.2018 09:00 0 98,85 -2,1
7 20.1.2018 08:30 0 99,07 -2,78
8 20.1.2018 08:00 0 99,1 -3,08
9 20.1.2018 07:30 0 98,97 -2,88
10 20.1.2018 07:00 0 98,68 -2,76
11 20.1.2018 06:30 0 98,56 -2,49
12 20.1.2018 06:00 0 97,95 -2,42
13 20.1.2018 05:30 0 97,07 -2,25
14 20.1.2018 05:00 0 96,31 -2,17
15 20.1.2018 04:30 0 95,14 -1,88
16 20.1.2018 04:00 0 93,36 -1,42
17 20.1.2018 03:30 0 83,81 0,44
18 20.1.2018 03:00 0 75,73 1,83
19 20.1.2018 02:30 0 78,95 1,61
20 20.1.2018 02:00 0 79,37 1,66
21 20.1.2018 01:30 0 80,1 1,86
22 20.1.2018 01:00 0 79,71 2,05
23 20.1.2018 00:30 0 80,51 1,95
24 20.1.2018 00:00 0 80,34 2,12
25 19.1.2018 23:30 0 77,44 2,64
26 19.1.2018 23:00 0 73,89 3,25
27 19.1.2018 22:30 0 75,36 3,42
28 19.1.2018 22:00 0 79,15 3,42
29 19.1.2018 21:30 0 80,37 3,42
30 19.1.2018 21:00 0 79,32 3,66
31 19.1.2018 20:30 0 83,13 3,52
32 19.1.2018 20:00 0 85,37 3,47
33 19.1.2018 19:30 0 86,89 3,42
34 19.1.2018 19:00 0 87,64 3,39
35 19.1.2018 18:30 0,2 84,84 3,52
36 19.1.2018 18:00 0 86,37 3,47
37 19.1.2018 17:30 0,4 89,26 3,57
38 19.1.2018 17:00 0,6 87,94 5,52
39 19.1.2018 16:30 0 92,65 7,11
40 19.1.2018 16:00 0 90,92 7,37
41 19.1.2018 15:30 0 84,54 8,11
42 19.1.2018 15:00 0,2 85,37 8,18
43 19.1.2018 14:30 0 87,37 7,91
44 19.1.2018 14:00 0 76,43 8,82
45 19.1.2018 13:30 0 70,79 9,4
46 19.1.2018 13:00 0 70,99 9,43
47 19.1.2018 12:30 0 71,89 9,35
© 2011 Ministrstvo za kmetijstvo, gozdarstvo in prehrano. Vse pravice pridržane.